Regional Weather Roundup
Issued by NWS Memphis, TN

Home | Current Version | Previous Version | Text Only | Print | Product List | Glossary On
Versions: 1 2 3 4 5 6 7 8 9 10 11 12 13 14 15 16 17 18 19 20 21 22 23 24 25 26 27 28 29 30 31 32 33 34 35 36 37 38 39 40 41 42 43 44 45 46 47 48 49 50
000
ASUS44 KMEG 200810
RWRMEG
MEMPHIS CWA HOURLY WEATHER ROUNDUP
NATIONAL WEATHER SERVICE MEMPHIS TN
200 AM CST SAT DEC 20 2014

...WEST TENNESSEE...

CITY           SKY/WX    TMP DP  RH WIND       PRES   REMARKS
MEMPHIS INTL   PTCLDY    37  31  78 N3        30.23R
NWS MEMPHIS      N/A     33 N/A N/A MISG        N/A
JACKSON        MOCLDY    33  30  88 CALM      30.23R
LEXINGTON      CLOUDY    32  28  86 N6        30.20S WCI  26
SAVANNAH       CLOUDY    36  30  80 CALM      30.22R
DYERSBURG      CLOUDY    37  21  52 NE6       30.26R WCI  33
UNION CITY     CLOUDY    34  28  80 N5        30.24R WCI  30
PARIS          CLOUDY    28  27  93 N5        30.23S WCI  23
HUNTINGDON     CLOUDY    32  27  82 CALM      30.23


...EASTERN ARKANSAS...

CITY           SKY/WX    TMP DP  RH WIND       PRES   REMARKS
JONESBORO      CLOUDY    39  34  82 NE6       30.25R WCI  35
WEST MEMPHIS   CLOUDY    37  34  89 N5        30.23R WCI  33
BATESVILLE     CLOUDY    37  30  75 E5        30.24F WCI  34
NEWPORT        CLOUDY    38  35  89 N5        30.26S WCI  34
WALNUT RIDGE   MOCLDY    37  32  81 N5        30.24F WCI  34
BLYTHEVILLE    CLOUDY    38  35  89 N6        30.25S WCI  33
SEARCY         CLOUDY    39  35  86 N3        30.26S
STUTTGART      CLOUDY    39  36  87 N7        30.23F WCI  34
PINE BLUFF     CLOUDY    40  37  89 N6        30.22F
MONTICELLO     CLOUDY    43  39  86 N3        30.21R


...NORTH MISSISSIPPI...

CITY           SKY/WX    TMP DP  RH WIND       PRES   REMARKS
TUPELO         PTCLDY    37  33  85 NE6       30.20S WCI  32
OXFORD         PTCLDY    36  32  87 NE3       30.22S
OLIVE BRANCH   CLEAR     34  34 100 CALM      30.22S
TUNICA         CLEAR     36  32  87 N3        30.24S
CLARKSDALE     MOCLDY    37  36  93 CALM      30.23R
CORINTH        CLOUDY    39  34  81 CALM      30.21S
GRENADA        CLOUDY    39  36  87 CALM      30.21S
GREENWOOD      CLOUDY    43  40  89 NE3       30.21R
COLUMBUS       CLOUDY    40  37  88 N5        30.20R
STARKVILLE     CLOUDY    41  39  93 NE5       30.19R FOG
GOLDEN TRIANGL CLOUDY    41  37  87 N6        30.18S


...SOUTHEAST MISSOURI...

CITY           SKY/WX    TMP DP  RH WIND       PRES   REMARKS
WEST PLAINS    LGT SNOW  33  31  92 E3        30.21S FOG
POPLAR BLUFF   CLOUDY    37  32  82 N3        30.25R
CAPE GIRARDEAU CLOUDY    36  30  79 E3        30.26F


...NORTHWEST ALABAMA...

CITY           SKY/WX    TMP DP  RH WIND       PRES   REMARKS
MUSCLE SHOALS  CLOUDY    39  31  72 N3        30.21R


...MIDDLE TENNESSEE...

CITY           SKY/WX    TMP DP  RH WIND       PRES   REMARKS
NASHVILLE      MOCLDY    35  27  72 N6        30.22S WCI  30
CLARKSVILLE    PTCLDY    30  26  85 N7        30.24S WCI  23


...WESTERN KENTUCKY...

CITY           SKY/WX    TMP DP  RH WIND       PRES   REMARKS
PADUCAH        CLOUDY    35  27  72 E6        30.25S WCI  30
FORT CAMPBELL  MOCLDY    30  26  85 N6        30.24R WCI  24


...CENTRAL ARKANSAS...

CITY           SKY/WX    TMP DP  RH WIND       PRES   REMARKS
LITTLE ROCK    CLOUDY    41  35  79 NE6       30.24S


SKY/WX REPORTED AS FAIR MEANS FEW OR NO CLOUDS BELOW
12 THOUSAND FEET.



USA.gov is the U.S. government's official web portal to all federal, state and local government web resources and services.